Terminal Aerodrome Forecast
Issued by NWS Atlanta, GA

Home | Current Version | Previous Version | Text Only | Print | Product List | Glossary On
Versions: 1 2 3 4 5 6 7 8 9 10 11 12 13 14 15 16 17 18 19 20 21 22 23 24 25 26 27 28 29 30 31 32 33 34 35 36 37
000
FTUS42 KFFC 231128
TAFATL
TAF
KATL 231128Z 2312/2418 24004KT P6SM SCT250
     FM231500 26006KT P6SM SCT035
     FM231700 23009KT P6SM VCSH BKN035
      TEMPO 2320/2324 3SM TSRA BKN035CB
     FM240200 23006KT P6SM SCT035 BKN050
     FM240600 24005KT P6SM SCT250=

USA.gov is the U.S. government's official web portal to all federal, state and local government web resources and services.